Terug naar catalogus

COSMOS 2251 DEB

ActiefLEO
NORAD 35718·DEBRIS·🇷🇺 Russia

Gelanceerd Jun 16, 1993 vanaf Plesetsk Cosmodrome

Loading…

Volgende Passages (komende 24 uur)

TLE

VersSource: Space-Track

Epoch: Sep 14, 2026, 10:27 UTC

1 35718U 93036AQP 26257.43607134  .00003963  00000-0  62287-3 0  9994
2 35718  74.0302 314.3272 0013219 297.1127  62.8696 14.72859461698949

Volg COSMOS 2251 DEB in realtime met AllMySat

Download on the App Store